Flag for United Kingdom Weather past 2 weeks in Ely, England, United Kingdom

Now
68 °F

Overcast.


Feels Like: 68 °F
Forecast: 53 / 75 °F
Wind: 13 mph from Southwest

Location: Mildenhall Royal Air Force Base

Current Time: Aug 1, 2015 at 3:47:44 PM

Latest Report: Aug 1, 2015 at 2:58 PM


Visibility: N/A

Pressure: 29.98 "Hg

Humidity: 50%

Dew point: 49 °F

Location of ElyLocation

Historic Weather in Ely — Graph

°F

Ely temperature yesterday

Maximum temperature yesterday: 69 °F (at 4:58 PM)
Minimum temperature yesterday: 46 °F (at 5:58 AM)
Average temperature yesterday: 59 °F

Past Weeks' High & Low Weather Summary

 TemperatureHumidityPressure
High77 °F (Jul 17, 2:58 PM)100% (Jul 24, 3:53 PM)30.14 "Hg (Jul 24, 3:53 PM)
Low46 °F (Jul 31, 5:58 AM)33% (Jul 19, 3:58 PM)29.35 "Hg (Jul 27, 4:03 AM)
Average61 °F74%29.84 "Hg
* Reported Jul 17 1:58 PM — Aug 1 1:58 PM, Ely, Weather by CustomWeather, © 2015

Note: Actual official high and low records may vary slightly from our data, if they occured in-between our weather recording intervals... More about our weather records

Advertising

Ely weather history for previous 24 hours

 ConditionsComfort  
Time TempWeatherWind HumidityBarometerVisibility
1:58 PM
Sat, Aug 1
68 °FBroken clouds.10 mph48%29.97 "HgN/A
12:58 PM67 °FPartly sunny.8 mph48%29.98 "HgN/A
11:58 AM67 °FSunny.8 mph49%29.99 "HgN/A
10:58 AM65 °FPassing clouds.3 mph50%30.00 "HgN/A
9:58 AM62 °FPassing clouds.7 mph57%30.00 "HgN/A
8:58 AM59 °FSunny.7 mph69%30.00 "HgN/A
7:58 AM56 °FSunny.6 mph76%29.99 "HgN/A
6:58 AM53 °FSunny.5 mph85%29.98 "HgN/A
5:58 AM49 °FClear.5 mph88%29.97 "HgN/A
4:58 AM50 °FClear.6 mph87%29.97 "HgN/A
3:58 AM52 °FClear.2 mph81%29.97 "HgN/A
2:58 AM54 °FPassing clouds.7 mph80%29.98 "HgN/A
1:58 AM54 °FPassing clouds.7 mph83%29.98 "HgN/A
12:58 AM56 °FClear.9 mph79%29.97 "HgN/A
11:58 PM
Fri, Jul 31
60 °FOvercast.12 mph75%29.98 "HgN/A
10:58 PM59 °FOvercast.13 mph77%29.98 "HgN/A
9:58 PM58 °FPassing clouds.10 mph71%29.98 "HgN/A
9:03 PM61 °FLight rain. Partly sunny.9 mph63%29.97 "HgN/A
7:58 PM64 °FPassing clouds.10 mph60%29.98 "HgN/A
6:58 PM66 °FPartly sunny.12 mph55%29.98 "HgN/A
5:58 PM68 °FPartly sunny.6 mph45%29.99 "HgN/A
4:58 PM69 °FPartly sunny.5 mph40%30.01 "HgN/A
3:59 PM68 °FScattered clouds.9 mph43%30.01 "HgN/A
3:58 PM68 °FLight rain. Scattered clouds.9 mph42%30.02 "HgN/A
Weather by CustomWeather, © 2015

See weather overviewHow to use our weather pages